Cahokia, IL

10:29 PM CDT on May 24, 2017 (GMT -0500)
Saint Louis Downtown

Weather History for KCPS - July, 2012

Change the Weather History Date:

Sunday, July 8, 2012

  Actual Average Record
Temperature  
Mean Temperature 85 °F -  
Max Temperature 98 °F 91 °F 100 °F (2001)
Min Temperature 72 °F 68 °F 59 °F (2006)
Cooling Degree Days 20    
Growing Degree Days 35 (Base 50)    
Moisture  
Dew Point 72 °F    
Average Humidity 73    
Maximum Humidity 91    
Minimum Humidity 44    
Precipitation  
Precipitation 0.42 in - - ()
Sea Level Pressure  
Sea Level Pressure 29.95 in    
Wind  
Wind Speed 3 mph (South)    
Max Wind Speed 13 mph    
Max Gust Speed 20 mph    
Visibility 9 miles    
Events Rain , Thunderstorm    
Averages and records for this station are not official NWS values.
T = Trace of Precipitation, MM = Missing Value Source: NWS Daily Summary

Daily Weather History Graph

Daily Weather History Graph

Search for Another Location

Airport or City:

Trip Planner

Search our weather history database for the weather conditions in past years. The results will help you decide how hot, cold, wet, or windy it might be!

Date:

Astronomy

Jul. 08, 2012 Rise Set
Actual Time 5:44 AM CDT 8:27 PM CDT
Civil Twilight 5:12 AM CDT 8:58 PM CDT
Nautical Twilight 4:33 AM CDT 9:37 PM CDT
Astronomical Twilight 3:49 AM CDT 10:21 PM CDT
Moon 11:19 PM CDT (7/8) 11:06 AM CDT (7/8)
Length of Visible Light 15h 45m
Length of Day
14h 43m
Waning Gibbous, 73% of the Moon is Illuminated
Jul 8
Waning Gibbous
Jul 10
Last Quarter
Jul 18
New
Jul 26
First Quarter
Aug 1
Full

Hourly Weather History & Observations

Time (CDT) Temp. Heat Index Dew Point Humidity Pressure Visibility Wind Dir Wind Speed Gust Speed Precip Events Conditions
12:53 AM 78.1 °F - 72.0 °F 81% 29.93 in 10.0 mi Calm Calm - N/A   Clear
1:53 AM 77.0 °F - 72.0 °F 84% 29.91 in 10.0 mi South 3.5 mph - N/A   Clear
2:53 AM 77.0 °F - 72.0 °F 84% 29.92 in 10.0 mi Calm Calm - N/A   Clear
3:53 AM 77.0 °F - 73.0 °F 88% 29.94 in 8.0 mi West 4.6 mph - N/A   Clear
4:53 AM 79.0 °F - 71.1 °F 77% 29.94 in 10.0 mi Calm Calm - N/A   Clear
5:53 AM 75.9 °F - 70.0 °F 82% 29.95 in 10.0 mi SW 4.6 mph - N/A   Clear
6:53 AM 77.0 °F - 71.1 °F 82% 29.96 in 10.0 mi SSW 3.5 mph - N/A   Clear
7:53 AM 79.0 °F - 72.0 °F 79% 29.97 in 10.0 mi Calm Calm - N/A   Clear
8:53 AM 82.0 °F 87.4 °F 73.0 °F 74% 29.97 in 10.0 mi Calm Calm - N/A   Clear
9:53 AM 86.0 °F 92.2 °F 72.0 °F 63% 29.96 in 10.0 mi Calm Calm - N/A   Clear
10:53 AM 89.1 °F 95.0 °F 71.1 °F 55% 29.96 in 10.0 mi Calm Calm - N/A   Clear
11:53 AM 91.9 °F 99.5 °F 72.0 °F 52% 29.96 in 10.0 mi South 3.5 mph - N/A   Clear
12:53 PM 96.1 °F 104.9 °F 72.0 °F 46% 29.95 in 10.0 mi Variable 3.5 mph - N/A   Clear
1:53 PM 98.1 °F 111.2 °F 75.0 °F 48% 29.94 in 10.0 mi North 12.7 mph 17.3 mph N/A   Clear
2:53 PM 97.0 °F 105.5 °F 72.0 °F 44% 29.91 in 10.0 mi North 11.5 mph 16.1 mph N/A   Scattered Clouds
5:53 PM 90.0 °F 97.9 °F 73.0 °F 57% 29.90 in 10.0 mi ENE 9.2 mph - N/A   Mostly Cloudy
6:03 PM 89.6 °F 98.2 °F 73.4 °F 59% 29.91 in 10.0 mi ENE 12.7 mph - N/A Thunderstorm Thunderstorm
6:48 PM 82.9 °F 90.2 °F 75.0 °F 77% 29.93 in 1.8 mi ESE 8.1 mph 19.6 mph 0.18 in Thunderstorm Heavy Thunderstorm
7:00 PM 80.6 °F 86.2 °F 75.2 °F 84% 29.95 in 1.5 mi SE 11.5 mph 18.4 mph 0.16 in Rain , Thunderstorm Light Thunderstorms and Rain
7:03 PM 78.8 °F - 75.2 °F 89% 29.95 in 4.0 mi SE 12.7 mph 19.6 mph 0.18 in Rain , Thunderstorm Light Thunderstorms and Rain
7:53 PM 72.0 °F - 69.1 °F 91% 30.02 in 10.0 mi SW 4.6 mph 16.1 mph 0.24 in Rain , Thunderstorm Light Thunderstorms and Rain
8:53 PM 73.0 °F - 69.1 °F 87% 29.98 in 10.0 mi Calm Calm - 0.00 in   Partly Cloudy
10:53 PM 73.0 °F - 70.0 °F 90% 29.99 in 10.0 mi SSW 3.5 mph - N/A   Clear